This is the latest recevied weather packets stored in our database for station/object HF3P-11. If no packets are shown the sender has not sent any weather packets the latest 10 day(s).
| Time | Temp. | Humidity | Pressure | Rain* | Wind** | Luminosity | Snow |
|---|---|---|---|---|---|---|---|
| 1787643300 | 17.78° C | 85% | 1013.1 hPa | 0 mm | - | - | - |
| 1787643000 | 17.78° C | 86% | 1013.3 hPa | 0 mm | - | - | - |
| 1787642708 | 17.78° C | 86% | 1013.2 hPa | 0 mm | - | - | - |
| 1787642409 | 17.78° C | 85% | 1013.1 hPa | 0 mm | - | - | - |
| 1787642100 | 17.78° C | 87% | 1013.3 hPa | 0 mm | - | - | - |
| 1787641809 | 17.78° C | 88% | 1013.1 hPa | 0 mm | - | - | - |
| 1787641499 | 17.78° C | 86% | 1013.2 hPa | 0 mm | - | - | - |
| 1787641208 | 17.78° C | 86% | 1013.2 hPa | 0 mm | - | - | - |
| 1787640909 | 18.33° C | 85% | 1013.2 hPa | 0 mm | - | - | - |
| 1787640608 | 18.33° C | 83% | 1013 hPa | 0 mm | - | - | - |
| 1787640299 | 19.44° C | 81% | 1013 hPa | 0 mm | - | - | - |
| 1787640008 | 19.44° C | 85% | 1013 hPa | 0 mm | - | - | - |
| 1787639700 | 18.89° C | 91% | 1013.2 hPa | 0 mm | - | - | - |
| 1787639409 | 17.78° C | 91% | 1013.1 hPa | 0 mm | - | - | - |
| 1787639100 | 16.67° C | 95% | 1013.1 hPa | 0 mm | - | - | - |
| 1787638807 | 16.11° C | 95% | 1013.2 hPa | 0 mm | - | - | - |
| 1787638500 | 15.56° C | 100% | 1013.2 hPa | 0 mm | - | - | - |
| 1787638210 | 15.56° C | 100% | 1013.5 hPa | 0 mm | - | - | - |
| 1787637900 | 15° C | 99% | 1013.5 hPa | 0 mm | - | - | - |
| 1787637609 | 15° C | 99% | 1013.4 hPa | 0 mm | - | - | - |
| 1787637300 | 14.44° C | 99% | 1013.5 hPa | 0 mm | - | - | - |
| 1787637009 | 15.56° C | 99% | 1013.4 hPa | 0 mm | - | - | - |
| 1787636700 | 13.89° C | 99% | 1013.2 hPa | 0 mm | - | - | - |
| 1787636409 | 13.33° C | 99% | 1013.3 hPa | 0 mm | - | - | - |
| 1787636100 | 13.33° C | 99% | 1013.2 hPa | 0 mm | - | - | - |
* Rain latest hour (hover to see other rain measurements)
** Current wind speed in m/s (hover to see current wind gust speed)